Time,TemperatureF,DewpointF,PressureIn,WindDirection,WindDirectionDegrees,WindSpeedMPH,WindSpeedGustMPH,Humidity,HourlyPrecipIn,Conditions,Clouds,dailyrainin,SoftwareType,DateUTC
2013-04-17 00:00:00,53.2,50.5,30.17,SSW,202,1.9,4.7,92,0.00,,,0.00,Rainwise IP-100,2013-04-17 04:00:00,
2013-04-17 00:01:00,53.3,51.0,30.17,SSW,202,0.0,4.7,92,0.00,,,0.00,Rainwise IP-100,2013-04-17 04:01:00,
2013-04-17 00:03:00,53.3,51.0,30.16,SSE,157,3.3,4.4,92,0.00,,,0.00,Rainwise IP-100,2013-04-17 04:03:00,
2013-04-17 00:08:00,53.4,51.0,30.17,SW,225,4.0,5.1,92,0.00,,,0.00,Rainwise IP-100,2013-04-17 04:08:00,
2013-04-17 00:10:00,53.5,51.0,30.17,South,180,1.6,4.7,92,0.00,,,0.00,Rainwise IP-100,2013-04-17 04:10:00,
2013-04-17 00:11:00,53.5,51.0,30.17,SSW,202,1.9,4.7,92,0.00,,,0.00,Rainwise IP-100,2013-04-17 04:11:00,
2013-04-17 00:16:00,53.5,50.5,30.17,SSW,202,1.2,5.1,91,0.00,,,0.00,Rainwise IP-100,2013-04-17 04:16:00,
2013-04-17 00:21:00,53.5,50.5,30.17,SSW,202,3.5,4.7,91,0.00,,,0.00,Rainwise IP-100,2013-04-17 04:21:00,
2013-04-17 00:26:00,53.6,50.5,30.17,South,180,3.7,5.1,91,0.00,,,0.00,Rainwise IP-100,2013-04-17 04:26:00,
2013-04-17 00:31:00,53.7,51.0,30.16,South,180,4.4,8.9,92,0.00,,,0.00,Rainwise IP-100,2013-04-17 04:31:00,
2013-04-17 00:36:00,53.7,50.5,30.17,South,180,4.9,7.7,91,0.00,,,0.00,Rainwise IP-100,2013-04-17 04:36:00,
2013-04-17 00:37:00,53.7,50.5,30.17,SSW,202,5.6,7.7,91,0.00,,,0.00,Rainwise IP-100,2013-04-17 04:37:00,
2013-04-17 00:42:00,53.8,51.0,30.17,South,180,6.1,7.7,91,0.00,,,0.00,Rainwise IP-100,2013-04-17 04:42:00,
2013-04-17 00:47:00,54.0,51.0,30.16,SSW,202,5.1,7.0,91,0.00,,,0.00,Rainwise IP-100,2013-04-17 04:47:00,
2013-04-17 00:48:00,54.0,51.0,30.16,SSW,202,5.4,7.0,91,0.00,,,0.00,Rainwise IP-100,2013-04-17 04:48:00,
2013-04-17 00:53:00,54.2,51.0,30.16,SSW,202,2.6,5.8,91,0.00,,,0.00,Rainwise IP-100,2013-04-17 04:53:00,
2013-04-17 00:56:00,54.4,52.0,30.16,SSW,202,1.6,4.2,91,0.00,,,0.00,Rainwise IP-100,2013-04-17 04:56:00,
2013-04-17 01:01:00,54.5,52.0,30.16,SW,225,2.8,4.4,91,0.00,,,0.00,Rainwise IP-100,2013-04-17 05:01:00,
2013-04-17 01:06:00,54.6,52.0,30.16,SSW,202,3.0,6.3,91,0.00,,,0.00,Rainwise IP-100,2013-04-17 05:06:00,
2013-04-17 01:08:00,54.6,52.0,30.16,SSE,157,4.2,6.8,91,0.00,,,0.00,Rainwise IP-100,2013-04-17 05:08:00,
2013-04-17 01:13:00,54.8,53.0,30.16,SE,135,0.0,5.4,90,0.00,,,0.00,Rainwise IP-100,2013-04-17 05:13:00,
2013-04-17 01:18:00,55.0,53.0,30.17,WNW,292,3.7,7.9,90,0.00,,,0.00,Rainwise IP-100,2013-04-17 05:18:00,
2013-04-17 01:19:00,55.0,53.0,30.17,West,270,4.4,7.9,90,0.00,,,0.00,Rainwise IP-100,2013-04-17 05:19:00,
2013-04-17 01:23:00,55.3,52.0,30.17,WSW,247,2.8,7.5,89,0.00,,,0.00,Rainwise IP-100,2013-04-17 05:23:00,
2013-04-17 01:28:00,55.7,53.0,30.17,SW,225,7.2,8.2,89,0.00,,,0.00,Rainwise IP-100,2013-04-17 05:28:00,
2013-04-17 01:33:00,56.0,53.0,30.17,SW,225,5.1,9.3,88,0.00,,,0.00,Rainwise IP-100,2013-04-17 05:33:00,
2013-04-17 01:39:00,56.3,53.0,30.16,SW,225,4.9,9.6,88,0.00,,,0.00,Rainwise IP-100,2013-04-17 05:39:00,
2013-04-17 01:44:00,56.3,53.0,30.16,SW,225,4.9,10.5,88,0.00,,,0.00,Rainwise IP-100,2013-04-17 05:44:00,
2013-04-17 01:46:00,56.3,53.0,30.16,SSW,202,5.6,10.5,87,0.00,,,0.00,Rainwise IP-100,2013-04-17 05:46:00,
2013-04-17 01:50:00,56.3,53.0,30.16,SSW,202,7.7,11.2,87,0.00,,,0.00,Rainwise IP-100,2013-04-17 05:50:00,
2013-04-17 01:55:00,56.3,53.0,30.17,WSW,247,5.8,8.6,87,0.00,,,0.00,Rainwise IP-100,2013-04-17 05:55:00,
2013-04-17 01:56:00,56.3,53.0,30.16,SW,225,4.0,8.6,87,0.00,,,0.00,Rainwise IP-100,2013-04-17 05:56:00,
2013-04-17 02:01:00,56.4,53.0,30.16,SSW,202,7.7,7.7,87,0.00,,,0.00,Rainwise IP-100,2013-04-17 06:01:00,
2013-04-17 02:02:00,56.4,53.0,30.16,SW,225,4.9,8.4,87,0.00,,,0.00,Rainwise IP-100,2013-04-17 06:02:00,
2013-04-17 02:06:00,56.4,53.0,30.16,SW,225,4.4,9.3,87,0.00,,,0.00,Rainwise IP-100,2013-04-17 06:06:00,
2013-04-17 02:11:00,56.4,53.0,30.16,WSW,247,4.4,6.8,87,0.00,,,0.00,Rainwise IP-100,2013-04-17 06:11:00,
2013-04-17 02:16:00,56.4,53.0,30.16,WSW,247,3.5,6.3,87,0.00,,,0.00,Rainwise IP-100,2013-04-17 06:16:00,
2013-04-17 02:21:00,56.4,53.0,30.16,SSW,202,3.5,7.0,87,0.00,,,0.00,Rainwise IP-100,2013-04-17 06:21:00,
2013-04-17 02:22:00,56.4,53.0,30.16,SW,225,2.6,7.0,87,0.00,,,0.00,Rainwise IP-100,2013-04-17 06:22:00,
2013-04-17 02:26:00,56.4,53.0,30.16,SSW,202,2.6,5.6,87,0.00,,,0.00,Rainwise IP-100,2013-04-17 06:26:00,
2013-04-17 02:31:00,56.4,53.0,30.16,SSW,202,3.3,5.4,87,0.00,,,0.00,Rainwise IP-100,2013-04-17 06:31:00,
2013-04-17 02:32:00,56.4,53.0,30.16,SSW,202,4.4,5.4,87,0.00,,,0.00,Rainwise IP-100,2013-04-17 06:32:00,
2013-04-17 02:37:00,56.4,53.0,30.16,SSW,202,5.1,5.1,87,0.00,,,0.00,Rainwise IP-100,2013-04-17 06:37:00,
2013-04-17 02:41:00,56.4,53.0,30.16,SW,225,3.3,6.1,87,0.00,,,0.00,Rainwise IP-100,2013-04-17 06:41:00,
2013-04-17 02:44:00,56.4,53.0,30.16,SSW,202,2.6,4.7,87,0.00,,,0.00,Rainwise IP-100,2013-04-17 06:44:00,
2013-04-17 02:46:00,56.4,53.0,30.16,SSW,202,2.8,4.9,87,0.00,,,0.00,Rainwise IP-100,2013-04-17 06:46:00,
2013-04-17 02:51:00,56.4,53.0,30.16,SSW,202,4.0,5.4,87,0.00,,,0.00,Rainwise IP-100,2013-04-17 06:51:00,
2013-04-17 02:55:00,56.4,53.0,30.16,South,180,5.6,6.5,87,0.00,,,0.00,Rainwise IP-100,2013-04-17 06:55:00,
2013-04-17 03:00:00,56.4,53.0,30.15,SSW,202,5.6,6.3,87,0.00,,,0.00,Rainwise IP-100,2013-04-17 07:00:00,
2013-04-17 03:04:00,56.4,53.0,30.16,SSW,202,4.0,6.5,87,0.00,,,0.00,Rainwise IP-100,2013-04-17 07:04:00,
2013-04-17 03:06:00,56.4,53.0,30.16,SSW,202,4.7,6.3,87,0.00,,,0.00,Rainwise IP-100,2013-04-17 07:06:00,
2013-04-17 03:11:00,56.4,53.0,30.15,South,180,5.4,6.5,87,0.00,,,0.00,Rainwise IP-100,2013-04-17 07:11:00,
2013-04-17 03:16:00,56.3,53.0,30.15,SSW,202,5.8,6.1,87,0.00,,,0.00,Rainwise IP-100,2013-04-17 07:16:00,
2013-04-17 03:17:00,56.3,53.0,30.15,SSW,202,6.8,7.5,87,0.00,,,0.00,Rainwise IP-100,2013-04-17 07:17:00,
2013-04-17 03:22:00,56.3,53.0,30.15,SW,225,5.4,8.9,87,0.00,,,0.00,Rainwise IP-100,2013-04-17 07:22:00,
2013-04-17 03:26:00,56.3,53.0,30.15,SSW,202,3.5,7.2,87,0.00,,,0.00,Rainwise IP-100,2013-04-17 07:26:00,
2013-04-17 03:31:00,56.2,52.0,30.15,SW,225,4.4,6.5,87,0.00,,,0.00,Rainwise IP-100,2013-04-17 07:31:00,
2013-04-17 03:35:00,56.2,53.0,30.14,SSW,202,2.8,5.8,88,0.00,,,0.00,Rainwise IP-100,2013-04-17 07:35:00,
2013-04-17 03:36:00,56.1,53.0,30.14,SW,225,2.6,5.8,88,0.00,,,0.00,Rainwise IP-100,2013-04-17 07:36:00,
2013-04-17 03:41:00,56.1,53.0,30.15,SW,225,1.2,3.3,88,0.00,,,0.00,Rainwise IP-100,2013-04-17 07:41:00,
2013-04-17 03:42:00,56.1,53.0,30.15,SW,225,1.6,3.3,88,0.00,,,0.00,Rainwise IP-100,2013-04-17 07:42:00,
2013-04-17 03:46:00,56.2,53.0,30.15,West,270,1.9,3.0,88,0.00,,,0.00,Rainwise IP-100,2013-04-17 07:46:00,
2013-04-17 03:51:00,56.3,53.0,30.15,West,270,1.4,2.6,88,0.00,,,0.00,Rainwise IP-100,2013-04-17 07:51:00,
2013-04-17 03:55:00,56.3,53.5,30.15,West,270,1.2,1.9,89,0.00,,,0.00,Rainwise IP-100,2013-04-17 07:55:00,
2013-04-17 04:00:00,56.3,53.5,30.16,West,270,0.0,1.4,89,0.00,,,0.00,Rainwise IP-100,2013-04-17 08:00:00,
2013-04-17 04:05:00,56.4,53.5,30.16,West,270,0.0,0.0,89,0.00,,,0.00,Rainwise IP-100,2013-04-17 08:05:00,
2013-04-17 04:06:00,56.4,53.5,30.16,West,270,0.0,0.0,89,0.00,,,0.00,Rainwise IP-100,2013-04-17 08:06:00,
2013-04-17 04:11:00,56.4,53.5,30.16,West,270,0.0,0.0,89,0.00,,,0.00,Rainwise IP-100,2013-04-17 08:11:00,
2013-04-17 04:15:00,56.4,53.5,30.16,West,270,0.0,0.0,89,0.00,,,0.00,Rainwise IP-100,2013-04-17 08:15:00,
2013-04-17 04:20:00,56.3,53.5,30.15,West,270,1.4,1.6,89,0.00,,,0.00,Rainwise IP-100,2013-04-17 08:20:00,
2013-04-17 04:21:00,56.3,53.5,30.15,West,270,1.4,1.6,89,0.00,,,0.00,Rainwise IP-100,2013-04-17 08:21:00,
2013-04-17 04:26:00,56.3,53.5,30.15,SSW,202,4.0,4.0,89,0.00,,,0.00,Rainwise IP-100,2013-04-17 08:26:00,
2013-04-17 04:31:00,56.3,53.5,30.14,SSW,202,0.0,4.2,89,0.00,,,0.00,Rainwise IP-100,2013-04-17 08:31:00,
2013-04-17 04:33:00,56.3,53.5,30.14,SSW,202,0.0,3.0,89,0.00,,,0.00,Rainwise IP-100,2013-04-17 08:33:00,
2013-04-17 04:36:00,56.4,53.5,30.15,SSW,202,0.0,1.4,90,0.00,,,0.00,Rainwise IP-100,2013-04-17 08:36:00,
2013-04-17 04:41:00,56.4,53.5,30.15,SSW,202,0.0,1.2,89,0.00,,,0.00,Rainwise IP-100,2013-04-17 08:41:00,
2013-04-17 04:42:00,56.4,53.5,30.15,SSW,202,0.0,1.2,89,0.00,,,0.00,Rainwise IP-100,2013-04-17 08:42:00,
2013-04-17 04:47:00,56.3,53.5,30.15,WSW,247,0.0,0.0,89,0.00,,,0.00,Rainwise IP-100,2013-04-17 08:47:00,
2013-04-17 04:51:00,56.3,53.5,30.15,West,270,0.0,1.6,90,0.00,,,0.00,Rainwise IP-100,2013-04-17 08:51:00,
2013-04-17 04:53:00,56.3,53.5,30.15,WNW,292,0.0,1.6,90,0.00,,,0.00,Rainwise IP-100,2013-04-17 08:53:00,
2013-04-17 04:58:00,56.3,53.5,30.16,NW,315,2.1,3.0,90,0.00,,,0.00,Rainwise IP-100,2013-04-17 08:58:00,
2013-04-17 05:01:00,56.3,53.5,30.15,NW,315,0.0,3.0,90,0.00,,,0.00,Rainwise IP-100,2013-04-17 09:01:00,
2013-04-17 05:02:00,56.3,53.5,30.15,NW,315,0.0,2.3,90,0.00,,,0.00,Rainwise IP-100,2013-04-17 09:02:00,
2013-04-17 05:06:00,56.3,53.5,30.16,NNW,337,4.9,4.9,90,0.00,,,0.00,Rainwise IP-100,2013-04-17 09:06:00,
2013-04-17 05:11:00,56.3,54.0,30.16,NNW,337,1.6,5.1,91,0.00,,,0.00,Rainwise IP-100,2013-04-17 09:11:00,
2013-04-17 05:15:00,56.3,54.0,30.16,NNE,22,2.8,2.8,91,0.00,,,0.00,Rainwise IP-100,2013-04-17 09:15:00,
2013-04-17 05:20:00,56.4,54.0,30.16,NNE,22,5.4,6.5,91,0.00,,,0.00,Rainwise IP-100,2013-04-17 09:20:00,
2013-04-17 05:25:00,56.5,54.0,30.16,North,360,7.5,10.7,91,0.00,,,0.00,Rainwise IP-100,2013-04-17 09:25:00,
2013-04-17 05:26:00,56.6,54.0,30.16,North,360,9.6,10.7,91,0.00,,,0.00,Rainwise IP-100,2013-04-17 09:26:00,
2013-04-17 05:30:00,56.9,54.5,30.16,NNW,337,9.3,13.1,91,0.00,,,0.00,Rainwise IP-100,2013-04-17 09:30:00,
2013-04-17 05:31:00,56.9,54.5,30.16,NNW,337,11.7,14.9,91,0.00,,,0.00,Rainwise IP-100,2013-04-17 09:31:00,
2013-04-17 05:36:00,57.1,54.5,30.17,North,360,10.5,17.5,91,0.00,,,0.00,Rainwise IP-100,2013-04-17 09:36:00,
2013-04-17 05:41:00,56.7,53.5,30.17,NNE,22,8.9,14.0,90,0.00,,,0.00,Rainwise IP-100,2013-04-17 09:41:00,
2013-04-17 05:46:00,56.3,53.0,30.16,North,360,7.9,18.0,88,0.00,,,0.00,Rainwise IP-100,2013-04-17 09:46:00,
2013-04-17 05:51:00,56.0,51.0,30.17,NNW,337,6.3,14.7,85,0.00,,,0.00,Rainwise IP-100,2013-04-17 09:51:00,
2013-04-17 05:56:00,55.8,50.5,30.17,NNE,22,14.0,15.2,82,0.00,,,0.00,Rainwise IP-100,2013-04-17 09:56:00,
2013-04-17 05:57:00,55.7,50.0,30.16,North,360,11.7,15.6,81,0.00,,,0.00,Rainwise IP-100,2013-04-17 09:57:00,
2013-04-17 06:02:00,55.4,49.0,30.17,North,360,7.9,12.4,79,0.00,,,0.00,Rainwise IP-100,2013-04-17 10:02:00,
2013-04-17 06:07:00,55.0,48.0,30.16,NNW,337,11.4,16.8,77,0.00,,,0.00,Rainwise IP-100,2013-04-17 10:07:00,
2013-04-17 06:12:00,54.6,47.5,30.17,NNW,337,4.0,17.5,76,0.00,,,0.00,Rainwise IP-100,2013-04-17 10:12:00,
2013-04-17 06:17:00,54.5,47.0,30.17,NNW,337,4.4,11.9,74,0.00,,,0.00,Rainwise IP-100,2013-04-17 10:17:00,
2013-04-17 06:22:00,54.5,46.0,30.17,North,360,4.7,13.8,73,0.00,,,0.00,Rainwise IP-100,2013-04-17 10:22:00,
2013-04-17 06:25:00,54.5,46.0,30.18,NNW,337,6.5,12.6,72,0.00,,,0.00,Rainwise IP-100,2013-04-17 10:25:00,
2013-04-17 06:26:00,54.5,46.0,30.18,North,360,7.2,12.6,71,0.00,,,0.00,Rainwise IP-100,2013-04-17 10:26:00,
2013-04-17 06:31:00,54.6,45.0,30.18,NNW,337,11.4,13.1,69,0.00,,,0.00,Rainwise IP-100,2013-04-17 10:31:00,
2013-04-17 06:36:00,54.6,44.0,30.18,NNW,337,11.9,14.5,68,0.00,,,0.00,Rainwise IP-100,2013-04-17 10:36:00,
2013-04-17 06:41:00,54.5,44.0,30.19,North,360,13.5,16.1,67,0.00,,,0.00,Rainwise IP-100,2013-04-17 10:41:00,
2013-04-17 06:47:00,54.5,44.0,30.18,NNW,337,9.8,16.3,67,0.00,,,0.00,Rainwise IP-100,2013-04-17 10:47:00,
2013-04-17 06:52:00,54.5,44.0,30.18,North,360,12.1,16.3,67,0.00,,,0.00,Rainwise IP-100,2013-04-17 10:52:00,
2013-04-17 06:57:00,54.4,44.0,30.19,NNW,337,7.5,17.3,67,0.00,,,0.00,Rainwise IP-100,2013-04-17 10:57:00,
2013-04-17 07:02:00,54.3,44.0,30.19,NNW,337,10.0,16.6,67,0.00,,,0.00,Rainwise IP-100,2013-04-17 11:02:00,
2013-04-17 07:07:00,54.2,43.0,30.20,NNW,337,10.3,16.3,67,0.00,,,0.00,Rainwise IP-100,2013-04-17 11:07:00,
2013-04-17 07:12:00,54.2,43.0,30.20,NNW,337,13.1,15.6,67,0.00,,,0.00,Rainwise IP-100,2013-04-17 11:12:00,
2013-04-17 07:17:00,54.1,43.0,30.21,NNW,337,13.1,15.2,67,0.00,,,0.00,Rainwise IP-100,2013-04-17 11:17:00,
2013-04-17 07:22:00,54.1,43.0,30.21,NW,315,8.9,16.3,67,0.00,,,0.00,Rainwise IP-100,2013-04-17 11:22:00,
2013-04-17 07:27:00,54.1,43.0,30.22,NNW,337,9.8,18.7,67,0.00,,,0.00,Rainwise IP-100,2013-04-17 11:27:00,
2013-04-17 07:33:00,54.0,43.0,30.22,North,360,7.2,14.2,67,0.00,,,0.00,Rainwise IP-100,2013-04-17 11:33:00,
2013-04-17 07:38:00,54.0,44.0,30.23,NNW,337,9.6,14.9,68,0.00,,,0.00,Rainwise IP-100,2013-04-17 11:38:00,
2013-04-17 07:43:00,53.9,44.0,30.24,NNW,337,6.8,14.2,68,0.00,,,0.00,Rainwise IP-100,2013-04-17 11:43:00,
2013-04-17 07:48:00,53.9,44.0,30.24,NNW,337,5.8,11.9,68,0.00,,,0.00,Rainwise IP-100,2013-04-17 11:48:00,
2013-04-17 07:53:00,53.9,44.0,30.25,NNW,337,6.8,13.1,68,0.00,,,0.00,Rainwise IP-100,2013-04-17 11:53:00,
2013-04-17 07:58:00,54.0,44.0,30.24,NNW,337,7.9,10.7,68,0.00,,,0.00,Rainwise IP-100,2013-04-17 11:58:00,
2013-04-17 08:03:00,54.1,44.0,30.25,NNW,337,10.7,10.7,68,0.00,,,0.00,Rainwise IP-100,2013-04-17 12:03:00,
2013-04-17 08:08:00,54.1,44.0,30.25,NNW,337,7.5,12.1,68,0.00,,,0.00,Rainwise IP-100,2013-04-17 12:08:00,
2013-04-17 08:10:00,54.1,44.0,30.25,WNW,292,2.8,10.0,68,0.00,,,0.00,Rainwise IP-100,2013-04-17 12:10:00,
2013-04-17 08:11:00,54.1,44.0,30.25,NNW,337,5.6,9.6,68,0.00,,,0.00,Rainwise IP-100,2013-04-17 12:11:00,
2013-04-17 08:16:00,54.1,43.0,30.25,NNW,337,4.0,9.6,67,0.00,,,0.00,Rainwise IP-100,2013-04-17 12:16:00,
2013-04-17 08:21:00,54.2,43.0,30.25,NW,315,5.1,11.0,67,0.00,,,0.00,Rainwise IP-100,2013-04-17 12:21:00,
2013-04-17 08:26:00,54.3,43.0,30.26,North,360,6.1,12.6,66,0.00,,,0.00,Rainwise IP-100,2013-04-17 12:26:00,
2013-04-17 08:31:00,54.3,43.0,30.25,NNW,337,7.2,12.1,66,0.00,,,0.00,Rainwise IP-100,2013-04-17 12:31:00,
2013-04-17 08:32:00,54.3,43.0,30.25,NNW,337,7.5,12.1,65,0.00,,,0.00,Rainwise IP-100,2013-04-17 12:32:00,
2013-04-17 08:36:00,54.2,42.0,30.26,NNW,337,8.6,14.2,65,0.00,,,0.00,Rainwise IP-100,2013-04-17 12:36:00,
2013-04-17 08:41:00,54.2,41.0,30.25,NW,315,17.5,18.4,63,0.00,,,0.00,Rainwise IP-100,2013-04-17 12:41:00,
2013-04-17 08:43:00,54.2,41.0,30.25,NNW,337,13.1,18.7,62,0.00,,,0.00,Rainwise IP-100,2013-04-17 12:43:00,
2013-04-17 08:47:00,54.2,40.0,30.26,NNW,337,11.4,16.3,60,0.00,,,0.00,Rainwise IP-100,2013-04-17 12:47:00,
2013-04-17 08:51:00,54.2,40.0,30.26,NNW,337,10.3,21.2,59,0.00,,,0.00,Rainwise IP-100,2013-04-17 12:51:00,
2013-04-17 08:56:00,54.2,39.0,30.26,NNW,337,8.4,17.3,58,0.00,,,0.00,Rainwise IP-100,2013-04-17 12:56:00,
2013-04-17 09:01:00,54.2,39.0,30.26,NNW,337,5.1,17.0,58,0.00,,,0.00,Rainwise IP-100,2013-04-17 13:01:00,
2013-04-17 09:07:00,54.2,39.0,30.26,NW,315,10.3,12.1,58,0.00,,,0.00,Rainwise IP-100,2013-04-17 13:07:00,
2013-04-17 09:10:00,54.3,40.0,30.25,NNW,337,4.4,11.7,58,0.00,,,0.00,Rainwise IP-100,2013-04-17 13:10:00,
2013-04-17 09:11:00,54.4,40.0,30.26,NNW,337,9.3,11.7,58,0.00,,,0.00,Rainwise IP-100,2013-04-17 13:11:00,
2013-04-17 09:16:00,54.8,41.0,30.26,North,360,4.9,10.3,58,0.00,,,0.00,Rainwise IP-100,2013-04-17 13:16:00,
2013-04-17 09:21:00,55.2,40.0,30.26,NNW,337,10.0,11.9,56,0.00,,,0.00,Rainwise IP-100,2013-04-17 13:21:00,
2013-04-17 09:26:00,55.2,39.0,30.26,NNW,337,9.3,15.2,55,0.00,,,0.00,Rainwise IP-100,2013-04-17 13:26:00,
2013-04-17 09:28:00,55.3,39.0,30.26,NNE,22,5.8,11.7,54,0.00,,,0.00,Rainwise IP-100,2013-04-17 13:28:00,
2013-04-17 09:33:00,55.4,38.0,30.26,NNW,337,9.8,16.3,53,0.00,,,0.00,Rainwise IP-100,2013-04-17 13:33:00,
2013-04-17 09:36:00,55.5,38.0,30.26,NNW,337,6.5,16.3,52,0.00,,,0.00,Rainwise IP-100,2013-04-17 13:36:00,
2013-04-17 09:39:00,55.5,38.0,30.26,North,360,2.1,13.1,51,0.00,,,0.00,Rainwise IP-100,2013-04-17 13:39:00,
2013-04-17 09:44:00,55.9,38.0,30.26,NW,315,7.9,11.0,51,0.00,,,0.00,Rainwise IP-100,2013-04-17 13:44:00,
2013-04-17 09:48:00,56.4,38.0,30.25,NNW,337,9.6,10.3,50,0.00,,,0.00,Rainwise IP-100,2013-04-17 13:48:00,
2013-04-17 09:53:00,57.1,38.0,30.25,North,360,7.5,16.6,48,0.00,,,0.00,Rainwise IP-100,2013-04-17 13:53:00,
2013-04-17 09:56:00,57.7,38.0,30.26,North,360,7.2,16.6,47,0.00,,,0.00,Rainwise IP-100,2013-04-17 13:56:00,
2013-04-17 09:57:00,57.7,38.0,30.26,North,360,10.5,14.0,47,0.00,,,0.00,Rainwise IP-100,2013-04-17 13:57:00,
2013-04-17 10:01:00,58.4,38.0,30.26,NNW,337,4.2,11.2,46,0.00,,,0.00,Rainwise IP-100,2013-04-17 14:01:00,
2013-04-17 10:06:00,59.0,38.0,30.26,NNW,337,7.7,8.6,45,0.00,,,0.00,Rainwise IP-100,2013-04-17 14:06:00,
2013-04-17 10:08:00,59.0,38.0,30.26,NNW,337,7.0,10.7,45,0.00,,,0.00,Rainwise IP-100,2013-04-17 14:08:00,
2013-04-17 10:11:00,59.0,38.0,30.26,NNW,337,11.4,13.5,45,0.00,,,0.00,Rainwise IP-100,2013-04-17 14:11:00,
2013-04-17 10:16:00,58.4,37.0,30.25,NW,315,9.6,18.0,45,0.00,,,0.00,Rainwise IP-100,2013-04-17 14:16:00,
2013-04-17 10:21:00,57.8,38.0,30.25,NNW,337,12.1,21.0,46,0.00,,,0.00,Rainwise IP-100,2013-04-17 14:21:00,
2013-04-17 10:27:00,57.8,38.0,30.25,NW,315,17.3,18.9,46,0.00,,,0.00,Rainwise IP-100,2013-04-17 14:27:00,
2013-04-17 10:32:00,57.8,38.0,30.25,NNW,337,8.9,18.9,46,0.00,,,0.00,Rainwise IP-100,2013-04-17 14:32:00,
2013-04-17 10:37:00,57.9,38.0,30.26,NNW,337,12.6,17.7,46,0.00,,,0.00,Rainwise IP-100,2013-04-17 14:37:00,
2013-04-17 10:41:00,58.0,37.0,30.26,NNW,337,13.5,17.0,45,0.00,,,0.00,Rainwise IP-100,2013-04-17 14:41:00,
2013-04-17 10:42:00,58.0,37.0,30.26,NNW,337,13.8,18.9,45,0.00,,,0.00,Rainwise IP-100,2013-04-17 14:42:00,
2013-04-17 10:47:00,58.1,37.0,30.25,NNW,337,14.9,19.1,45,0.00,,,0.00,Rainwise IP-100,2013-04-17 14:47:00,
2013-04-17 10:50:00,58.1,37.0,30.26,NW,315,17.7,20.8,45,0.00,,,0.00,Rainwise IP-100,2013-04-17 14:50:00,
2013-04-17 10:51:00,58.1,37.0,30.26,WNW,292,17.7,20.8,45,0.00,,,0.00,Rainwise IP-100,2013-04-17 14:51:00,
2013-04-17 10:56:00,58.1,37.0,30.25,NNW,337,16.3,23.1,45,0.00,,,0.00,Rainwise IP-100,2013-04-17 14:56:00,
2013-04-17 11:01:00,58.2,37.0,30.25,NNW,337,9.3,20.3,45,0.00,,,0.00,Rainwise IP-100,2013-04-17 15:01:00,
2013-04-17 11:06:00,58.5,37.0,30.25,NW,315,11.4,16.8,44,0.00,,,0.00,Rainwise IP-100,2013-04-17 15:06:00,
2013-04-17 11:11:00,58.7,37.0,30.25,NNW,337,11.0,15.6,44,0.00,,,0.00,Rainwise IP-100,2013-04-17 15:11:00,
2013-04-17 11:12:00,58.7,37.0,30.25,NNW,337,12.4,15.6,44,0.00,,,0.00,Rainwise IP-100,2013-04-17 15:12:00,
2013-04-17 11:16:00,58.9,37.0,30.25,WNW,292,14.2,14.5,44,0.00,,,0.00,Rainwise IP-100,2013-04-17 15:16:00,
2013-04-17 11:17:00,58.9,37.0,30.25,NNW,337,8.4,14.5,44,0.00,,,0.00,Rainwise IP-100,2013-04-17 15:17:00,
2013-04-17 11:21:00,59.0,37.0,30.24,NW,315,15.4,16.6,43,0.00,,,0.00,Rainwise IP-100,2013-04-17 15:21:00,
2013-04-17 11:23:00,59.1,37.0,30.24,NW,315,4.9,16.6,43,0.00,,,0.00,Rainwise IP-100,2013-04-17 15:23:00,
2013-04-17 11:26:00,59.3,37.0,30.24,NNW,337,6.8,16.3,43,0.00,,,0.00,Rainwise IP-100,2013-04-17 15:26:00,
2013-04-17 11:31:00,60.1,37.0,30.24,NNW,337,12.6,13.8,42,0.00,,,0.00,Rainwise IP-100,2013-04-17 15:31:00,
2013-04-17 11:32:00,60.1,37.0,30.24,NNW,337,14.2,16.3,42,0.00,,,0.00,Rainwise IP-100,2013-04-17 15:32:00,
2013-04-17 11:37:00,60.1,36.0,30.25,NW,315,10.7,15.2,41,0.00,,,0.00,Rainwise IP-100,2013-04-17 15:37:00,
2013-04-17 11:41:00,59.6,36.0,30.24,NNW,337,15.6,15.6,41,0.00,,,0.00,Rainwise IP-100,2013-04-17 15:41:00,
2013-04-17 11:46:00,59.6,36.0,30.24,NW,315,10.5,15.6,41,0.00,,,0.00,Rainwise IP-100,2013-04-17 15:46:00,
2013-04-17 11:51:00,59.6,36.0,30.24,NNW,337,10.7,14.5,41,0.00,,,0.00,Rainwise IP-100,2013-04-17 15:51:00,
2013-04-17 11:56:00,59.7,36.0,30.24,NNW,337,4.9,11.9,41,0.00,,,0.00,Rainwise IP-100,2013-04-17 15:56:00,
2013-04-17 12:01:00,60.3,37.0,30.24,NNW,337,11.9,12.4,41,0.00,,,0.00,Rainwise IP-100,2013-04-17 16:01:00,
2013-04-17 12:07:00,60.8,37.0,30.24,NNW,337,8.6,13.3,40,0.00,,,0.00,Rainwise IP-100,2013-04-17 16:07:00,
2013-04-17 12:08:00,61.0,37.0,30.24,NW,315,7.5,13.3,40,0.00,,,0.00,Rainwise IP-100,2013-04-17 16:08:00,
2013-04-17 12:11:00,61.1,36.0,30.24,NW,315,11.2,17.7,39,0.00,,,0.00,Rainwise IP-100,2013-04-17 16:11:00,
2013-04-17 12:16:00,60.7,36.0,30.24,WNW,292,13.1,16.1,39,0.00,,,0.00,Rainwise IP-100,2013-04-17 16:16:00,
2013-04-17 12:21:00,60.3,36.0,30.24,NW,315,15.4,16.8,39,0.00,,,0.00,Rainwise IP-100,2013-04-17 16:21:00,
2013-04-17 12:26:00,60.6,36.0,30.24,WNW,292,10.7,18.7,40,0.00,,,0.00,Rainwise IP-100,2013-04-17 16:26:00,
2013-04-17 12:27:00,60.6,36.0,30.24,NNW,337,8.6,15.9,40,0.00,,,0.00,Rainwise IP-100,2013-04-17 16:27:00,
2013-04-17 12:31:00,61.2,36.0,30.24,NW,315,11.4,17.7,39,0.00,,,0.00,Rainwise IP-100,2013-04-17 16:31:00,
2013-04-17 12:36:00,61.6,36.0,30.24,NNW,337,12.1,15.6,39,0.00,,,0.00,Rainwise IP-100,2013-04-17 16:36:00,
2013-04-17 12:39:00,61.7,36.0,30.24,NNW,337,10.3,15.6,39,0.00,,,0.00,Rainwise IP-100,2013-04-17 16:39:00,
2013-04-17 12:44:00,62.3,37.0,30.24,NW,315,8.4,11.2,38,0.00,,,0.00,Rainwise IP-100,2013-04-17 16:44:00,
2013-04-17 12:46:00,62.5,37.0,30.23,NNW,337,9.6,13.8,38,0.00,,,0.00,Rainwise IP-100,2013-04-17 16:46:00,
2013-04-17 12:51:00,62.8,37.0,30.24,NNW,337,8.9,13.5,38,0.00,,,0.00,Rainwise IP-100,2013-04-17 16:51:00,
2013-04-17 12:56:00,63.2,36.0,30.23,NNE,22,9.8,13.3,37,0.00,,,0.00,Rainwise IP-100,2013-04-17 16:56:00,
2013-04-17 13:01:00,63.7,36.0,30.23,North,360,4.2,15.2,36,0.00,,,0.00,Rainwise IP-100,2013-04-17 17:01:00,
2013-04-17 13:06:00,63.7,36.0,30.23,North,360,10.0,16.6,35,0.00,,,0.00,Rainwise IP-100,2013-04-17 17:06:00,
2013-04-17 13:11:00,63.6,36.0,30.23,NNW,337,9.3,15.9,35,0.00,,,0.00,Rainwise IP-100,2013-04-17 17:11:00,
2013-04-17 13:17:00,63.9,36.0,30.23,NNW,337,15.2,15.9,35,0.00,,,0.00,Rainwise IP-100,2013-04-17 17:17:00,
2013-04-17 13:20:00,63.9,36.0,30.23,NNE,22,10.0,16.6,35,0.00,,,0.00,Rainwise IP-100,2013-04-17 17:20:00,
2013-04-17 13:21:00,63.9,36.0,30.23,North,360,2.8,16.6,35,0.00,,,0.00,Rainwise IP-100,2013-04-17 17:21:00,
2013-04-17 13:26:00,64.0,36.0,30.23,ENE,67,6.1,13.3,35,0.00,,,0.00,Rainwise IP-100,2013-04-17 17:26:00,
2013-04-17 13:29:00,64.0,36.0,30.23,NNE,22,7.5,13.3,35,0.00,,,0.00,Rainwise IP-100,2013-04-17 17:29:00,
2013-04-17 13:34:00,64.0,35.0,30.23,ENE,67,3.7,15.4,34,0.00,,,0.00,Rainwise IP-100,2013-04-17 17:34:00,
2013-04-17 13:39:00,63.8,35.0,30.23,NNW,337,6.8,11.0,34,0.00,,,0.00,Rainwise IP-100,2013-04-17 17:39:00,
2013-04-17 13:40:00,63.9,35.0,30.23,NNW,337,3.5,10.5,34,0.00,,,0.00,Rainwise IP-100,2013-04-17 17:40:00,
2013-04-17 13:45:00,64.3,36.0,30.23,North,360,6.3,12.1,34,0.00,,,0.00,Rainwise IP-100,2013-04-17 17:45:00,
2013-04-17 13:46:00,64.7,36.0,30.23,WNW,292,5.4,12.1,34,0.00,,,0.00,Rainwise IP-100,2013-04-17 17:46:00,
2013-04-17 13:51:00,65.3,36.0,30.23,North,360,7.7,14.7,33,0.00,,,0.00,Rainwise IP-100,2013-04-17 17:51:00,
2013-04-17 13:56:00,65.2,35.0,30.23,North,360,5.4,13.3,33,0.00,,,0.00,Rainwise IP-100,2013-04-17 17:56:00,
2013-04-17 14:01:00,64.5,35.0,30.23,NNE,22,7.7,11.0,33,0.00,,,0.00,Rainwise IP-100,2013-04-17 18:01:00,
2013-04-17 14:03:00,64.3,35.0,30.23,NNE,22,8.9,12.1,33,0.00,,,0.00,Rainwise IP-100,2013-04-17 18:03:00,
2013-04-17 14:06:00,64.4,35.0,30.24,NNE,22,8.4,12.8,33,0.00,,,0.00,Rainwise IP-100,2013-04-17 18:06:00,
2013-04-17 14:11:00,65.0,35.0,30.23,NNW,337,9.8,15.2,32,0.00,,,0.00,Rainwise IP-100,2013-04-17 18:11:00,
2013-04-17 14:16:00,65.3,35.0,30.24,NW,315,13.3,17.7,32,0.00,,,0.00,Rainwise IP-100,2013-04-17 18:16:00,
2013-04-17 14:21:00,65.4,35.0,30.24,NNW,337,12.8,16.1,31,0.00,,,0.00,Rainwise IP-100,2013-04-17 18:21:00,
2013-04-17 14:26:00,65.5,33.0,30.24,NNW,337,7.0,17.5,30,0.00,,,0.00,Rainwise IP-100,2013-04-17 18:26:00,
2013-04-17 14:28:00,65.5,33.0,30.24,North,360,10.3,14.5,30,0.00,,,0.00,Rainwise IP-100,2013-04-17 18:28:00,
2013-04-17 14:31:00,65.4,33.0,30.24,NW,315,13.5,13.5,30,0.00,,,0.00,Rainwise IP-100,2013-04-17 18:31:00,
2013-04-17 14:36:00,65.1,33.0,30.24,North,360,2.8,16.1,30,0.00,,,0.00,Rainwise IP-100,2013-04-17 18:36:00,
2013-04-17 14:41:00,65.4,33.0,30.24,NNW,337,11.0,16.1,30,0.00,,,0.00,Rainwise IP-100,2013-04-17 18:41:00,
2013-04-17 14:46:00,66.3,33.0,30.24,NW,315,4.4,16.6,29,0.00,,,0.00,Rainwise IP-100,2013-04-17 18:46:00,
2013-04-17 14:51:00,66.1,32.0,30.24,East,90,1.9,10.0,28,0.00,,,0.00,Rainwise IP-100,2013-04-17 18:51:00,
2013-04-17 14:53:00,66.0,32.0,30.24,NNW,337,7.2,9.6,28,0.00,,,0.00,Rainwise IP-100,2013-04-17 18:53:00,
2013-04-17 14:56:00,65.7,32.0,30.23,NW,315,8.2,12.1,29,0.00,,,0.00,Rainwise IP-100,2013-04-17 18:56:00,
2013-04-17 15:01:00,65.3,32.0,30.23,WNW,292,15.2,15.2,29,0.00,,,0.00,Rainwise IP-100,2013-04-17 19:01:00,
2013-04-17 15:06:00,64.5,32.0,30.23,NW,315,7.9,20.8,30,0.00,,,0.00,Rainwise IP-100,2013-04-17 19:06:00,
2013-04-17 15:11:00,64.2,32.0,30.23,NW,315,7.9,19.4,30,0.00,,,0.00,Rainwise IP-100,2013-04-17 19:11:00,
2013-04-17 15:16:00,64.9,33.0,30.23,NNW,337,8.4,14.5,30,0.00,,,0.00,Rainwise IP-100,2013-04-17 19:16:00,
2013-04-17 15:18:00,65.0,33.0,30.23,NNW,337,10.5,14.5,30,0.00,,,0.00,Rainwise IP-100,2013-04-17 19:18:00,
2013-04-17 15:21:00,65.6,32.0,30.23,NNW,337,7.2,12.6,29,0.00,,,0.00,Rainwise IP-100,2013-04-17 19:21:00,
2013-04-17 15:26:00,66.1,33.0,30.23,NNW,337,7.5,10.3,29,0.00,,,0.00,Rainwise IP-100,2013-04-17 19:26:00,
2013-04-17 15:31:00,66.2,32.0,30.23,NE,45,3.7,12.4,28,0.00,,,0.00,Rainwise IP-100,2013-04-17 19:31:00,
2013-04-17 15:32:00,66.2,32.0,30.23,NE,45,4.2,12.4,28,0.00,,,0.00,Rainwise IP-100,2013-04-17 19:32:00,
2013-04-17 15:37:00,66.3,32.0,30.23,WNW,292,9.8,10.0,28,0.00,,,0.00,Rainwise IP-100,2013-04-17 19:37:00,
2013-04-17 15:39:00,66.1,32.0,30.23,NNW,337,5.4,10.5,28,0.00,,,0.00,Rainwise IP-100,2013-04-17 19:39:00,
2013-04-17 15:42:00,66.4,33.0,30.23,NNW,337,2.3,10.5,29,0.00,,,0.00,Rainwise IP-100,2013-04-17 19:42:00,
2013-04-17 15:47:00,66.8,32.0,30.23,NW,315,7.0,12.1,28,0.00,,,0.00,Rainwise IP-100,2013-04-17 19:47:00,
2013-04-17 15:52:00,66.4,32.0,30.23,WSW,247,4.7,14.2,28,0.00,,,0.00,Rainwise IP-100,2013-04-17 19:52:00,
2013-04-17 15:53:00,66.4,32.0,30.23,WNW,292,3.5,14.2,28,0.00,,,0.00,Rainwise IP-100,2013-04-17 19:53:00,
2013-04-17 15:58:00,65.9,33.0,30.23,NNW,337,9.1,13.3,29,0.00,,,0.00,Rainwise IP-100,2013-04-17 19:58:00,
2013-04-17 16:03:00,66.4,33.0,30.23,NNE,22,2.3,12.1,29,0.00,,,0.00,Rainwise IP-100,2013-04-17 20:03:00,
2013-04-17 16:06:00,67.0,33.0,30.22,WNW,292,3.5,8.9,28,0.00,,,0.00,Rainwise IP-100,2013-04-17 20:06:00,
2013-04-17 16:11:00,67.3,32.0,30.23,NNE,22,7.9,12.6,27,0.00,,,0.00,Rainwise IP-100,2013-04-17 20:11:00,
2013-04-17 16:14:00,67.5,32.0,30.23,NNE,22,5.1,12.8,27,0.00,,,0.00,Rainwise IP-100,2013-04-17 20:14:00,
2013-04-17 16:16:00,67.6,32.0,30.23,NNE,22,9.1,12.8,27,0.00,,,0.00,Rainwise IP-100,2013-04-17 20:16:00,
2013-04-17 16:21:00,67.5,32.0,30.23,North,360,8.2,12.4,27,0.00,,,0.00,Rainwise IP-100,2013-04-17 20:21:00,
2013-04-17 16:26:00,67.9,33.0,30.23,NE,45,3.3,8.9,27,0.00,,,0.00,Rainwise IP-100,2013-04-17 20:26:00,
2013-04-17 16:30:00,68.2,33.0,30.23,North,360,5.6,11.7,27,0.00,,,0.00,Rainwise IP-100,2013-04-17 20:30:00,
2013-04-17 16:35:00,68.3,33.0,30.22,NNW,337,9.8,13.1,27,0.00,,,0.00,Rainwise IP-100,2013-04-17 20:35:00,
2013-04-17 16:40:00,68.0,32.0,30.23,NNW,337,0.0,12.4,26,0.00,,,0.00,Rainwise IP-100,2013-04-17 20:40:00,
2013-04-17 16:41:00,68.0,32.0,30.23,ESE,112,2.8,9.1,26,0.00,,,0.00,Rainwise IP-100,2013-04-17 20:41:00,
2013-04-17 16:45:00,68.0,32.0,30.22,WNW,292,3.3,3.3,26,0.00,,,0.00,Rainwise IP-100,2013-04-17 20:45:00,
2013-04-17 16:50:00,68.5,33.0,30.22,SW,225,0.0,3.3,27,0.00,,,0.00,Rainwise IP-100,2013-04-17 20:50:00,
2013-04-17 16:52:00,68.7,33.0,30.22,WSW,247,0.0,2.6,27,0.00,,,0.00,Rainwise IP-100,2013-04-17 20:52:00,
2013-04-17 16:56:00,68.4,33.0,30.22,ENE,67,4.9,8.9,27,0.00,,,0.00,Rainwise IP-100,2013-04-17 20:56:00,
2013-04-17 17:01:00,67.5,32.0,30.22,SE,135,1.9,8.9,27,0.00,,,0.00,Rainwise IP-100,2013-04-17 21:01:00,
2013-04-17 17:02:00,67.5,32.0,30.22,ESE,112,4.2,7.7,27,0.00,,,0.00,Rainwise IP-100,2013-04-17 21:02:00,
2013-04-17 17:07:00,65.5,35.0,30.23,SSE,157,4.2,9.1,31,0.00,,,0.00,Rainwise IP-100,2013-04-17 21:07:00,
2013-04-17 17:12:00,63.8,37.0,30.23,SSE,157,7.2,7.9,36,0.00,,,0.00,Rainwise IP-100,2013-04-17 21:12:00,
2013-04-17 17:17:00,63.1,37.0,30.24,SSE,157,3.3,7.9,38,0.00,,,0.00,Rainwise IP-100,2013-04-17 21:17:00,
2013-04-17 17:22:00,62.5,37.0,30.24,South,180,7.0,8.4,39,0.00,,,0.00,Rainwise IP-100,2013-04-17 21:22:00,
2013-04-17 17:27:00,62.6,37.0,30.24,SE,135,6.1,8.4,39,0.00,,,0.00,Rainwise IP-100,2013-04-17 21:27:00,
2013-04-17 17:32:00,61.8,37.0,30.24,SSW,202,4.0,6.8,39,0.00,,,0.00,Rainwise IP-100,2013-04-17 21:32:00,
2013-04-17 17:33:00,61.7,37.0,30.24,SW,225,3.0,6.3,40,0.00,,,0.00,Rainwise IP-100,2013-04-17 21:33:00,
2013-04-17 17:38:00,62.5,37.0,30.24,East,90,2.8,4.2,39,0.00,,,0.00,Rainwise IP-100,2013-04-17 21:38:00,
2013-04-17 17:42:00,64.1,37.0,30.24,North,360,6.5,8.4,37,0.00,,,0.00,Rainwise IP-100,2013-04-17 21:42:00,
2013-04-17 17:46:00,66.1,35.0,30.24,WNW,292,4.9,12.1,31,0.00,,,0.00,Rainwise IP-100,2013-04-17 21:46:00,
2013-04-17 17:51:00,67.7,33.0,30.25,North,360,7.2,12.6,28,0.00,,,0.00,Rainwise IP-100,2013-04-17 21:51:00,
2013-04-17 17:56:00,67.5,33.0,30.26,East,90,2.6,12.4,28,0.00,,,0.00,Rainwise IP-100,2013-04-17 21:56:00,
2013-04-17 17:59:00,66.6,33.0,30.25,SE,135,5.6,7.2,29,0.00,,,0.00,Rainwise IP-100,2013-04-17 21:59:00,
2013-04-17 18:01:00,64.7,35.0,30.25,SE,135,5.1,6.1,32,0.00,,,0.00,Rainwise IP-100,2013-04-17 22:01:00,
2013-04-17 18:06:00,62.5,37.0,30.25,South,180,0.0,6.8,38,0.00,,,0.00,Rainwise IP-100,2013-04-17 22:06:00,
2013-04-17 18:08:00,62.1,37.0,30.25,ESE,112,4.4,7.0,39,0.00,,,0.00,Rainwise IP-100,2013-04-17 22:08:00,
2013-04-17 18:11:00,61.4,38.0,30.25,SE,135,6.1,7.5,42,0.00,,,0.00,Rainwise IP-100,2013-04-17 22:11:00,
2013-04-17 18:16:00,60.0,38.0,30.25,SSE,157,1.6,7.2,44,0.00,,,0.00,Rainwise IP-100,2013-04-17 22:16:00,
2013-04-17 18:19:00,60.4,39.0,30.25,SE,135,4.7,4.7,45,0.00,,,0.00,Rainwise IP-100,2013-04-17 22:19:00,
2013-04-17 18:24:00,60.0,39.0,30.25,SE,135,4.0,6.8,47,0.00,,,0.00,Rainwise IP-100,2013-04-17 22:24:00,
2013-04-17 18:26:00,59.8,39.0,30.25,SSE,157,5.6,6.8,47,0.00,,,0.00,Rainwise IP-100,2013-04-17 22:26:00,
2013-04-17 18:31:00,59.0,40.0,30.26,South,180,1.9,7.0,49,0.00,,,0.00,Rainwise IP-100,2013-04-17 22:31:00,
2013-04-17 18:33:00,59.1,40.0,30.26,SW,225,2.1,7.0,50,0.00,,,0.00,Rainwise IP-100,2013-04-17 22:33:00,
2013-04-17 18:38:00,59.7,40.0,30.26,SSW,202,2.8,4.4,49,0.00,,,0.00,Rainwise IP-100,2013-04-17 22:38:00,
2013-04-17 18:43:00,61.3,40.0,30.26,South,180,1.2,3.7,46,0.00,,,0.00,Rainwise IP-100,2013-04-17 22:43:00,
2013-04-17 18:48:00,61.1,38.0,30.26,SE,135,1.9,5.4,43,0.00,,,0.00,Rainwise IP-100,2013-04-17 22:48:00,
2013-04-17 18:49:00,60.9,38.0,30.26,SE,135,1.6,5.4,43,0.00,,,0.00,Rainwise IP-100,2013-04-17 22:49:00,
2013-04-17 18:54:00,60.0,37.0,30.26,ESE,112,3.3,4.0,43,0.00,,,0.00,Rainwise IP-100,2013-04-17 22:54:00,
2013-04-17 18:58:00,59.8,37.0,30.27,ESE,112,3.5,4.4,43,0.00,,,0.00,Rainwise IP-100,2013-04-17 22:58:00,
2013-04-17 19:01:00,60.4,38.0,30.26,South,180,1.2,4.4,43,0.00,,,0.00,Rainwise IP-100,2013-04-17 23:01:00,
2013-04-17 19:06:00,61.7,39.0,30.26,SSW,202,1.4,3.5,43,0.00,,,0.00,Rainwise IP-100,2013-04-17 23:06:00,
2013-04-17 19:07:00,61.7,39.0,30.26,SSW,202,0.0,3.5,43,0.00,,,0.00,Rainwise IP-100,2013-04-17 23:07:00,
2013-04-17 19:11:00,61.5,38.0,30.27,ESE,112,4.0,4.7,42,0.00,,,0.00,Rainwise IP-100,2013-04-17 23:11:00,
2013-04-17 19:16:00,61.0,37.0,30.26,East,90,3.7,6.3,41,0.00,,,0.00,Rainwise IP-100,2013-04-17 23:16:00,
2013-04-17 19:21:00,61.2,36.0,30.27,East,90,2.3,5.6,39,0.00,,,0.00,Rainwise IP-100,2013-04-17 23:21:00,
2013-04-17 19:26:00,61.4,35.0,30.27,ESE,112,4.7,6.3,37,0.00,,,0.00,Rainwise IP-100,2013-04-17 23:26:00,
2013-04-17 19:27:00,61.4,35.0,30.27,East,90,4.4,6.3,37,0.00,,,0.00,Rainwise IP-100,2013-04-17 23:27:00,
2013-04-17 19:31:00,61.7,35.0,30.27,ENE,67,2.3,5.1,36,0.00,,,0.00,Rainwise IP-100,2013-04-17 23:31:00,
2013-04-17 19:36:00,61.7,35.0,30.27,ENE,67,2.1,4.4,37,0.00,,,0.00,Rainwise IP-100,2013-04-17 23:36:00,
2013-04-17 19:39:00,61.5,36.0,30.27,ENE,67,2.1,4.0,38,0.00,,,0.00,Rainwise IP-100,2013-04-17 23:39:00,
2013-04-17 19:41:00,61.4,36.0,30.27,ENE,67,1.9,3.7,38,0.00,,,0.00,Rainwise IP-100,2013-04-17 23:41:00,
2013-04-17 19:46:00,60.7,36.0,30.28,NE,45,1.9,4.2,39,0.00,,,0.00,Rainwise IP-100,2013-04-17 23:46:00,
2013-04-17 19:50:00,60.6,36.0,30.28,NNE,22,3.0,3.7,40,0.00,,,0.00,Rainwise IP-100,2013-04-17 23:50:00,
2013-04-17 19:51:00,60.5,36.0,30.27,ENE,67,2.1,3.7,40,0.00,,,0.00,Rainwise IP-100,2013-04-17 23:51:00,
2013-04-17 19:56:00,60.4,36.0,30.28,NNE,22,3.5,5.1,39,0.00,,,0.00,Rainwise IP-100,2013-04-17 23:56:00,
2013-04-17 20:01:00,60.5,35.0,30.28,ENE,67,4.2,5.1,38,0.00,,,0.00,Rainwise IP-100,2013-04-18 00:01:00,
2013-04-17 20:06:00,60.8,35.0,30.28,NE,45,2.3,7.2,37,0.00,,,0.00,Rainwise IP-100,2013-04-18 00:06:00,
2013-04-17 20:11:00,60.9,33.0,30.28,ENE,67,2.1,3.7,36,0.00,,,0.00,Rainwise IP-100,2013-04-18 00:11:00,
2013-04-17 20:16:00,60.8,33.0,30.28,NE,45,4.2,4.2,36,0.00,,,0.00,Rainwise IP-100,2013-04-18 00:16:00,
2013-04-17 20:22:00,60.8,33.0,30.28,ENE,67,4.2,4.7,35,0.00,,,0.00,Rainwise IP-100,2013-04-18 00:22:00,
2013-04-17 20:25:00,60.9,33.0,30.28,NNE,22,1.9,5.1,35,0.00,,,0.00,Rainwise IP-100,2013-04-18 00:25:00,
2013-04-17 20:27:00,60.9,33.0,30.29,NNE,22,2.1,5.1,35,0.00,,,0.00,Rainwise IP-100,2013-04-18 00:27:00,
2013-04-17 20:32:00,60.6,33.0,30.28,North,360,4.9,7.2,35,0.00,,,0.00,Rainwise IP-100,2013-04-18 00:32:00,
2013-04-17 20:36:00,60.5,33.0,30.29,North,360,4.9,8.6,35,0.00,,,0.00,Rainwise IP-100,2013-04-18 00:36:00,
2013-04-17 20:37:00,60.5,33.0,30.28,NNW,337,4.4,8.6,35,0.00,,,0.00,Rainwise IP-100,2013-04-18 00:37:00,
2013-04-17 20:42:00,60.7,33.0,30.29,NNW,337,3.0,8.6,35,0.00,,,0.00,Rainwise IP-100,2013-04-18 00:42:00,
2013-04-17 20:47:00,60.7,33.0,30.29,NNW,337,6.8,9.3,36,0.00,,,0.00,Rainwise IP-100,2013-04-18 00:47:00,
2013-04-17 20:51:00,60.7,33.0,30.29,NNW,337,8.2,9.6,36,0.00,,,0.00,Rainwise IP-100,2013-04-18 00:51:00,
2013-04-17 20:56:00,60.8,33.0,30.29,North,360,6.3,12.1,35,0.00,,,0.00,Rainwise IP-100,2013-04-18 00:56:00,
2013-04-17 20:59:00,60.9,33.0,30.30,NNE,22,4.0,9.6,35,0.00,,,0.00,Rainwise IP-100,2013-04-18 00:59:00,
2013-04-17 21:01:00,60.8,33.0,30.29,NNE,22,5.8,7.2,35,0.00,,,0.00,Rainwise IP-100,2013-04-18 01:01:00,
2013-04-17 21:04:00,60.8,33.0,30.29,NE,45,3.3,6.3,35,0.00,,,0.00,Rainwise IP-100,2013-04-18 01:04:00,
2013-04-17 21:06:00,60.7,33.0,30.29,NE,45,1.6,6.3,35,0.00,,,0.00,Rainwise IP-100,2013-04-18 01:06:00,
2013-04-17 21:11:00,60.5,33.0,30.30,ENE,67,3.5,3.5,35,0.00,,,0.00,Rainwise IP-100,2013-04-18 01:11:00,
2013-04-17 21:16:00,60.4,33.0,30.31,ESE,112,4.7,6.3,36,0.00,,,0.00,Rainwise IP-100,2013-04-18 01:16:00,
2013-04-17 21:20:00,60.3,35.0,30.32,SE,135,6.5,6.8,37,0.00,,,0.00,Rainwise IP-100,2013-04-18 01:20:00,
2013-04-17 21:21:00,59.7,35.0,30.31,SE,135,6.3,6.8,39,0.00,,,0.00,Rainwise IP-100,2013-04-18 01:21:00,
2013-04-17 21:26:00,57.5,38.0,30.31,SE,135,2.8,6.8,47,0.00,,,0.00,Rainwise IP-100,2013-04-18 01:26:00,
2013-04-17 21:31:00,57.0,39.0,30.31,ENE,67,1.2,3.7,50,0.00,,,0.00,Rainwise IP-100,2013-04-18 01:31:00,
2013-04-17 21:37:00,58.8,37.0,30.31,North,360,3.5,3.7,43,0.00,,,0.00,Rainwise IP-100,2013-04-18 01:37:00,
2013-04-17 21:42:00,58.5,37.0,30.31,North,360,3.3,3.5,44,0.00,,,0.00,Rainwise IP-100,2013-04-18 01:42:00,
2013-04-17 21:46:00,57.5,37.0,30.31,North,360,4.0,4.9,46,0.00,,,0.00,Rainwise IP-100,2013-04-18 01:46:00,
2013-04-17 21:51:00,57.4,36.0,30.31,North,360,3.3,4.9,44,0.00,,,0.00,Rainwise IP-100,2013-04-18 01:51:00,
2013-04-17 21:53:00,57.4,36.0,30.31,North,360,4.2,5.4,44,0.00,,,0.00,Rainwise IP-100,2013-04-18 01:53:00,
2013-04-17 21:56:00,57.7,36.0,30.32,North,360,3.5,5.4,43,0.00,,,0.00,Rainwise IP-100,2013-04-18 01:56:00,
2013-04-17 22:02:00,57.6,36.0,30.32,North,360,3.5,5.6,43,0.00,,,0.00,Rainwise IP-100,2013-04-18 02:02:00,
2013-04-17 22:06:00,57.4,36.0,30.32,North,360,4.0,5.1,44,0.00,,,0.00,Rainwise IP-100,2013-04-18 02:06:00,
2013-04-17 22:11:00,57.4,36.0,30.32,NNW,337,4.0,5.1,43,0.00,,,0.00,Rainwise IP-100,2013-04-18 02:11:00,
2013-04-17 22:16:00,57.5,36.0,30.31,North,360,3.5,5.4,43,0.00,,,0.00,Rainwise IP-100,2013-04-18 02:16:00,
2013-04-17 22:22:00,57.6,35.0,30.31,North,360,4.4,4.4,41,0.00,,,0.00,Rainwise IP-100,2013-04-18 02:22:00,
2013-04-17 22:27:00,57.4,35.0,30.31,North,360,3.7,4.7,42,0.00,,,0.00,Rainwise IP-100,2013-04-18 02:27:00,
2013-04-17 22:29:00,57.1,35.0,30.31,North,360,3.0,4.2,42,0.00,,,0.00,Rainwise IP-100,2013-04-18 02:29:00,
2013-04-17 22:34:00,56.4,35.0,30.31,North,360,0.0,3.3,44,0.00,,,0.00,Rainwise IP-100,2013-04-18 02:34:00,
2013-04-17 22:36:00,56.2,33.0,30.31,North,360,0.0,2.6,43,0.00,,,0.00,Rainwise IP-100,2013-04-18 02:36:00,
2013-04-17 22:39:00,56.3,35.0,30.31,North,360,0.0,1.9,43,0.00,,,0.00,Rainwise IP-100,2013-04-18 02:39:00,
2013-04-17 22:41:00,56.3,35.0,30.31,North,360,1.4,1.4,43,0.00,,,0.00,Rainwise IP-100,2013-04-18 02:41:00,
2013-04-17 22:46:00,55.6,37.0,30.31,South,180,4.7,7.2,49,0.00,,,0.00,Rainwise IP-100,2013-04-18 02:46:00,
2013-04-17 22:51:00,54.4,39.0,30.31,South,180,2.8,5.4,55,0.00,,,0.00,Rainwise IP-100,2013-04-18 02:51:00,
2013-04-17 22:56:00,53.9,38.0,30.31,South,180,2.1,3.3,55,0.00,,,0.00,Rainwise IP-100,2013-04-18 02:56:00,
2013-04-17 23:01:00,53.9,37.0,30.31,WSW,247,0.0,2.3,53,0.00,,,0.00,Rainwise IP-100,2013-04-18 03:01:00,
2013-04-17 23:06:00,54.1,36.0,30.31,WNW,292,2.6,2.8,51,0.00,,,0.00,Rainwise IP-100,2013-04-18 03:06:00,
2013-04-17 23:11:00,54.0,36.0,30.31,WNW,292,2.3,3.3,51,0.00,,,0.00,Rainwise IP-100,2013-04-18 03:11:00,
2013-04-17 23:15:00,53.7,37.0,30.31,WNW,292,2.6,3.3,53,0.00,,,0.00,Rainwise IP-100,2013-04-18 03:15:00,
2013-04-17 23:20:00,53.4,36.0,30.31,WNW,292,2.8,3.0,52,0.00,,,0.00,Rainwise IP-100,2013-04-18 03:20:00,
2013-04-17 23:25:00,53.5,36.0,30.32,WNW,292,2.3,2.8,51,0.00,,,0.00,Rainwise IP-100,2013-04-18 03:25:00,
2013-04-17 23:30:00,53.5,37.0,30.31,WNW,292,2.3,3.0,53,0.00,,,0.00,Rainwise IP-100,2013-04-18 03:30:00,
2013-04-17 23:33:00,53.2,37.0,30.32,WNW,292,1.4,3.0,55,0.00,,,0.00,Rainwise IP-100,2013-04-18 03:33:00,
2013-04-17 23:34:00,53.2,37.0,30.32,WNW,292,1.6,2.8,55,0.00,,,0.00,Rainwise IP-100,2013-04-18 03:34:00,
2013-04-17 23:36:00,53.0,37.0,30.32,WNW,292,2.8,2.8,56,0.00,,,0.00,Rainwise IP-100,2013-04-18 03:36:00,
2013-04-17 23:37:00,53.0,38.0,30.32,WNW,292,1.6,2.8,57,0.00,,,0.00,Rainwise IP-100,2013-04-18 03:37:00,
2013-04-17 23:39:00,52.7,38.0,30.32,WNW,292,2.8,2.8,58,0.00,,,0.00,Rainwise IP-100,2013-04-18 03:39:00,
2013-04-17 23:41:00,52.4,38.0,30.32,NW,315,2.6,3.0,58,0.00,,,0.00,Rainwise IP-100,2013-04-18 03:41:00,
2013-04-17 23:47:00,52.0,38.0,30.32,NW,315,3.7,4.2,58,0.00,,,0.00,Rainwise IP-100,2013-04-18 03:47:00,
2013-04-17 23:50:00,51.9,37.0,30.32,NW,315,3.0,4.2,57,0.00,,,0.00,Rainwise IP-100,2013-04-18 03:50:00,
2013-04-17 23:51:00,51.9,38.0,30.32,NW,315,2.6,4.2,58,0.00,,,0.00,Rainwise IP-100,2013-04-18 03:51:00,
2013-04-17 23:56:00,51.8,38.0,30.33,NW,315,0.0,2.8,58,0.00,,,0.00,Rainwise IP-100,2013-04-18 03:56:00,
2013-04-17 23:59:00,51.8,38.0,30.33,NW,315,0.0,1.2,59,0.00,,,0.00,Rainwise IP-100,2013-04-18 03:59:00,